Simultaneous Nadir Overpasses (SNOs) Predictions

Prediction of SNOs between NOAA-20 and METOP-B Satellite Orbit:

Table of predicted SNOs for the next 14.0 days since TLE Epoch: 6/8/2018
Index Date (NOAA-20) Time (NOAA-20) Lat,Lon (NOAA-20) SZA (NOAA-20 ) Date (METOP-B) Time (METOP-B) Lat,Lon (METOP-B) SZA (METOP-B ) Distance(km) Time Diff (sec)
1 06/15/2018 12:59:28 73.42, -24.61 50.30 06/15/2018 13:00:36 73.37, -22.40 50.12 70.44 68
2 06/15/2018 13:50:10 -73.32, 142.93 129.82 06/15/2018 13:51:20 -73.27, 144.70 129.97 56.81 70
3 06/15/2018 14:40:52 73.12, -49.33 49.97 06/15/2018 14:42:03 73.09, -48.35 49.87 32.09 71
4 06/15/2018 15:31:34 -73.02, 118.20 130.14 06/15/2018 15:32:47 -72.99, 118.76 130.22 18.70 73
5 06/15/2018 16:22:17 72.88, -74.18 49.70 06/15/2018 16:23:29 72.87, -74.17 49.67 1.67 72
6 06/15/2018 17:13:01 -72.88, 93.13 130.30 06/15/2018 17:14:11 -72.87, 93.16 130.33 1.90 70
7 06/15/2018 18:03:46 72.84, -99.47 49.65 06/15/2018 18:04:51 72.84, -99.56 49.65 3.02 65
8 06/15/2018 18:54:30 -72.84, 67.85 130.35 06/15/2018 18:55:33 -72.84, 67.77 130.36 2.54 63
9 06/15/2018 19:45:16 72.84,-124.86 49.66 06/15/2018 19:46:12 72.87,-124.84 49.67 2.77 56
10 06/15/2018 20:36:00 -72.85, 42.46 130.35 06/15/2018 20:36:54 -72.87, 42.49 130.34 2.85 54
11 06/15/2018 21:26:46 72.85,-150.25 49.66 06/15/2018 21:27:34 72.84,-150.23 49.64 0.95 48
12 06/15/2018 22:17:30 -72.85, 17.07 130.34 06/15/2018 22:18:16 -72.85, 17.10 130.36 1.29 46
13 06/15/2018 23:08:15 72.81,-175.53 49.61 06/15/2018 23:08:56 72.82,-175.62 49.62 3.23 41
14 06/15/2018 23:58:59 -72.81, -8.22 130.39 06/15/2018 23:59:38 -72.82, -8.29 130.38 2.79 39
15 06/16/2018 00:49:45 72.82, 159.08 49.62 06/16/2018 00:50:17 72.85, 159.10 49.64 3.58 32
16 06/16/2018 01:40:29 -72.82, -33.61 130.38 06/16/2018 01:41:00 -72.80, -33.68 130.41 3.23 31
17 06/16/2018 02:31:15 72.82, 133.69 49.63 06/16/2018 02:31:39 72.82, 133.71 49.62 0.60 24
18 06/16/2018 03:21:59 -72.83, -59.00 130.38 06/16/2018 03:22:21 -72.83, -58.97 130.38 1.06 22
19 06/16/2018 04:12:45 72.83, 108.30 49.63 06/16/2018 04:13:01 72.80, 108.32 49.60 3.50 16
20 06/16/2018 05:03:28 -72.78, -84.28 130.43 06/16/2018 05:03:43 -72.80, -84.35 130.41 3.23 15
21 06/16/2018 05:54:14 72.79, 83.01 49.58 06/16/2018 05:54:23 72.78, 82.93 49.57 3.13 9
22 06/16/2018 06:44:58 -72.79,-109.67 130.42 06/16/2018 06:45:05 -72.78,-109.74 130.43 2.70 7
23 06/16/2018 07:35:44 72.80, 57.62 49.59 06/16/2018 07:35:44 72.80, 57.64 49.59 1.08 0
24 06/16/2018 08:26:28 -72.80,-135.06 130.42 06/16/2018 08:26:26 -72.80,-135.03 130.41 1.41 2
25 06/16/2018 09:17:14 72.80, 32.23 49.59 06/16/2018 09:17:06 72.78, 32.26 49.57 2.72 8
26 06/16/2018 10:07:58 -72.80,-160.45 130.41 06/16/2018 10:07:48 -72.78,-160.42 130.43 2.86 10
27 06/16/2018 10:58:43 72.76, 6.95 49.54 06/16/2018 10:58:28 72.76, 6.87 49.55 2.82 15
28 06/16/2018 11:49:27 -72.76, 174.26 130.46 06/16/2018 11:49:10 -72.76, 174.19 130.46 2.35 17
29 06/16/2018 12:40:13 72.77, -18.44 49.55 06/16/2018 12:39:49 72.78, -18.42 49.57 1.82 24
30 06/16/2018 13:30:57 -72.77, 148.87 130.45 06/16/2018 13:30:31 -72.78, 148.91 130.43 2.06 26
31 06/16/2018 14:21:43 72.78, -43.83 49.56 06/16/2018 14:21:11 72.76, -43.81 49.55 1.97 32
32 06/16/2018 15:12:27 -72.78, 123.48 130.45 06/16/2018 15:11:53 -72.76, 123.52 130.46 2.16 34
33 06/16/2018 16:03:12 72.73, -69.11 49.51 06/16/2018 16:02:33 72.73, -69.20 49.52 2.72 39
34 06/16/2018 16:53:56 -72.73, 98.20 130.50 06/16/2018 16:53:15 -72.74, 98.13 130.48 2.25 41
35 06/16/2018 17:44:42 72.74, -94.50 49.51 06/16/2018 17:43:54 72.76, -94.48 49.54 2.61 48
36 06/16/2018 18:35:26 -72.74, 72.81 130.49 06/16/2018 18:34:36 -72.76, 72.85 130.46 2.80 50
37 06/16/2018 19:26:12 72.75,-119.89 49.52 06/16/2018 19:25:16 72.74,-119.87 49.52 1.30 56
38 06/16/2018 20:16:56 -72.75, 47.42 130.48 06/16/2018 20:15:58 -72.74, 47.46 130.48 1.61 58
39 06/16/2018 21:07:41 72.70,-145.18 49.47 06/16/2018 21:06:38 72.71,-145.26 49.50 2.85 63
40 06/16/2018 21:58:25 -72.71, 22.14 130.53 06/16/2018 21:57:20 -72.72, 22.07 130.51 2.43 65
41 06/16/2018 22:49:11 72.71,-170.57 49.48 06/16/2018 22:47:59 72.74,-170.54 49.52 3.41 72
42 06/16/2018 23:39:55 -72.71, -3.25 130.53 06/16/2018 23:38:42 -72.69, -3.32 130.53 3.12 73
43 06/17/2018 00:30:37 72.52, 164.46 49.26 06/17/2018 00:29:25 72.51, 163.66 49.32 26.78 72
44 06/17/2018 01:21:20 -72.47, -28.13 130.80 06/17/2018 01:20:08 -72.46, -29.12 130.73 33.09 72
45 06/17/2018 02:12:01 72.22, 139.67 48.93 06/17/2018 02:10:52 72.23, 137.76 49.07 64.84 69
46 06/17/2018 03:02:44 -72.17, -52.92 131.12 06/17/2018 03:01:35 -72.18, -55.00 130.97 71.01 69




NCC Satellite Simultaneous Nadir Overpasses (SNOs) Prediction Service
